Regional Weather Roundup
Issued by NWS

Home | Current Version | Previous Version | Text Only | Print | Product List | Glossary On
Versions: 1 2 3 4 5 6 7 8 9 10 11 12 13 14 15 16 17 18 19 20 21 22 23 24 25 26 27 28 29 30 31 32 33 34 35 36 37 38 39 40 41 42 43 44 45 46 47 48 49 50
000
ASUS43 KMPX 010901
RWRMN
WEATHER ROUNDUP FOR MINNESOTA
NATIONAL WEATHER SERVICE TWIN CITIES/CHANHASSEN MN
400 AM CDT MON SEP 01 2014


NOTE: "FAIR" INDICATES FEW OR NO CLOUDS BELOW 12,000 FEET WITH NO
SIGNIFICANT WEATHER AND/OR OBSTRUCTIONS TO VISIBILITY. N/A MEANS
CURRENT SKY AND/OR WEATHER CONDITIONS ARE NOT AVAILABLE.

MNZ060>063-068>070-011000-
   Twin Cities Metro

CITY           SKY/WX    TMP DP  RH WIND       PRES   REMARKS
TWIN CITIES    LGT RAIN  66  64  93 SW6       29.65R FOG
ST PAUL        LGT RAIN  65  64  97 S9        29.66R FOG
CRYSTAL        CLOUDY    67  63  87 S9        29.63R
BLAINE         CLOUDY    66  66 100 S7        29.65R
LAKEVILLE      CLOUDY    63  63 100 S3        29.66S
EDEN PRAIRIE   CLOUDY    66  64  93 SW9       29.65R
SOUTH ST PAUL  HVY RAIN  66  64  92 SW3       29.66R
LAKE ELMO      RAIN      64  63  94 S12       29.67R
$$
MNZ001>005-007-008-013>017-022>024-027-028-011000-
   Northwest Minnesota

CITY           SKY/WX    TMP DP  RH WIND       PRES   REMARKS
BEMIDJI        PTCLDY    56  56  98 W5        29.64R
HALLOCK        MOCLDY    55  54  94 W5        29.65F
ROSEAU         MOCLDY    61  55  82 W5        29.63F
WARROAD        CLOUDY    59  55  88 W8        29.63S
THIEF RVR FALL CLOUDY    57  55  94 NW14      29.65S VSB 3/4
CROOKSTON      PTCLDY    55  54  94 NW8       29.67R
FOSSTON        MOCLDY    55  55 100 NW7       29.67R
DETROIT LAKES  MOCLDY    59  55  88 W5        29.69R
MOORHEAD       MOCLDY    57  57 100 CALM      29.69R
PARK RAPIDS    PTCLDY    57  56  96 W7        29.65R
MAHNOMEN       FOG       53  53  99 W5        29.67R VSB 3/4
$$
MNZ006-009>011-018-025>026-011000-
   North Central Minnesota

CITY           SKY/WX    TMP DP  RH WIND       PRES   REMARKS
BAUDETTE       CLOUDY    59  57  93 NW7       29.60F
FLAG ISLAND    CLOUDY    61  57  88 NW13      29.59S
INTL FALLS     CLOUDY    59  58  96 W9        29.58S
WASKISH        CLOUDY    61  57  88 W9        29.61F
BIG FORK       CLOUDY    59  57  94 CALM      29.62S
LONGVILLE      CLOUDY    59  59 100 CALM      29.62F
GRAND RAPIDS   CLOUDY    63  57  82 NW8       29.61S
CRANE LAKE     CLOUDY    61  57  88 CALM      29.59S
ORR            CLOUDY    61  55  82 W3        29.57F
COOK           CLOUDY    61  61 100 W6        29.59F
WALKER         FAIR      58  57  98 W3        29.64R
$$
MNZ012-019>021-037-011000-
   Northeast Minnesota

CITY           SKY/WX    TMP DP  RH WIND       PRES   REMARKS
DULUTH         LGT RAIN  65  62  90 NW8       29.58F
ELY            RAIN      63  61  94 W3        29.57F
HIBBING        LGT RAIN  64  60  87 W3        29.59F
EVELETH        LGT RAIN  63  61  94 W3        29.60F
DULUTH HARBOR  RAIN      64  63  94 SW5       29.57S
TWO HARBORS    DRIZZLE   63  57  82 W5        29.55S
SILVER BAY     DRIZZLE   61  61 100 CALM      29.55S
GRAND MARAIS     N/A     64  62  93 CALM      29.53F
G MARAIS ARPRT LGT RAIN  61  57  88 CALM      29.56F VSB 1/4
$$
MNZ029>031-032-039>041-046>048-054>057-064-011000-
   West Central Minnesota

CITY           SKY/WX    TMP DP  RH WIND       PRES   REMARKS
FERGUS FALLS   CLOUDY    57  57 100 NW8       29.68S FOG
WHEATON        CLOUDY    61  57  88 W5        29.71S
MORRIS         CLOUDY    63  63 100 W6        29.68S
ALEXANDRIA     CLOUDY    64  62  93 W8        29.69R
ELBOW LAKE     FAIR      59  59  99 W5        29.68S FOG
WADENA         PTCLDY    61  57  88 W5        29.65R
GLENWOOD       MOCLDY    63  63 100 W6        29.69R THUNDER
APPLETON       CLOUDY    64  61  88 SW5       29.68S
BENSON         MOCLDY    63  61  94 NW5       29.68R
ORTONVILLE     CLOUDY    64  61  88 W3        29.69F
MADISON        LGT RAIN  64  63  94 W5        29.70S
WILLMAR        FAIR      64  63  94 W5        29.69S
$$
MNZ033>034-036-042>043-049>051-058-059-011000-
   Central Minnesota

CITY           SKY/WX    TMP DP  RH WIND       PRES   REMARKS
ST CLOUD       LGT RAIN  67  64  90 SW9       29.63S FOG
SAUK CENTRE    FAIR      63  63 100 W5        29.67R
PAYNESVILLE    MOCLDY    62  62  99 SW6       29.67R
AITKIN         CLOUDY    66  61  82 W3        29.60S
PINE RIVER     MOCLDY    61  61 100 CALM      29.68R
BRAINERD       CLOUDY    63  61  93 NW6       29.63R
STAPLES        PTCLDY    59  57  94 CALM      29.65R
LONG PRAIRIE   MOCLDY    63  61  94 W6        29.67R
LITTLE FALLS   CLOUDY    63  63 100 CALM      29.65R FOG
LITCHFIELD     TSTM      64  64 100 CALM      29.68R
BUFFALO        CLOUDY    64  62  92 SW6       29.66S THUNDER
MAPLE LAKE     CLOUDY    65  64  97 SW3       29.66S THUNDER
$$
MNZ037-044-045-052-053-011000-
   East Central Minnesota

CITY           SKY/WX    TMP DP  RH WIND       PRES   REMARKS
PRINCETON      CLOUDY    66  64  94 SW6       29.64R
MORA           HVY RAIN  61  61 100 SW3       29.65R
CAMBRIDGE      CLOUDY    66  59  77 SW3       29.62R THUNDER
RUSH CITY      CLOUDY    64  63  94 SW5       29.63R
MOOSE LAKE     RAIN      64  63  94 W5        29.58S
HINCKLEY       CLOUDY    64  64 100 SW6       29.61R
CLOQUET        RAIN      64  63  94 W3        29.58F
MCGREGOR       CLOUDY    63  63 100 W3        29.61S
$$
MNZ071>073-080-081-089-090-097-098-011000-
   Southwest Minnesota

CITY           SKY/WX    TMP DP  RH WIND       PRES   REMARKS
MONTEVIDEO     CLOUDY    63  63 100 N7        29.69F
GRANITE FALLS  CLOUDY    62  62  99 W5        29.70S THUNDER
CANBY          CLOUDY    64  61  91 NW5       29.71S
MARSHALL       CLOUDY    64  59  82 NW5       29.68F
REDWOOD FALLS  TSTM      63  61  93 N5        29.68R
OLIVIA         CLOUDY    64  61  88 SW6       29.68R THUNDER
PIPESTONE      MOCLDY    63  61  94 NW8       29.72S
WINDOM         CLOUDY    64  63  94 NW6       29.67F
WORTHINGTON    MOCLDY    64  63  94 NW10      29.70S
JACKSON        CLOUDY    64  63  94 SW5       29.69S
TRACY          CLOUDY    65  63  93 CALM      29.70F
SLAYTON        MOCLDY    62  62  97 CALM      29.71S THUNDER
$$
MNZ065>067-074>077-082>085-091>093-011000-
   South Central Minnesota

CITY           SKY/WX    TMP DP  RH WIND       PRES   REMARKS
MANKATO        CLOUDY    64  61  88 SW8       29.66S
NEW ULM        TSTM      64  64 100 W6        29.68R
ST JAMES       CLOUDY    66  64  94 SW6       29.67S
FAIRMONT       CLOUDY    64  61  88 SW6       29.67F
GLENCOE        CLOUDY    66  63  89 W6        29.66R THUNDER
FARIBAULT      CLOUDY    66  63  88 S5        29.67S
OWATONNA       CLOUDY    64  63  94 S10       29.68S
WASECA         CLOUDY    61  57  88 S5        29.69F
ALBERT LEA     CLOUDY    64  64 100 S7        29.67F
$$
MNZ078>079-086>088-094>096-011000-
   Southeast Minnesota

CITY           SKY/WX    TMP DP  RH WIND       PRES   REMARKS
ROCHESTER      CLOUDY    64  61  90 S12       29.68F
RED WING       RAIN      66  63  88 CALM      29.66S
STANTON        RAIN      65  62  89 S3        29.65F
DODGE CENTER   CLOUDY    64  63  94 S15       29.67F
WINONA         CLOUDY    66  61  82 SE3       29.66F
AUSTIN         CLOUDY    64  63  94 S9G17     29.67F
PRESTON        CLOUDY    63  63 100 CALM      29.69F
$$
ABBREVIATIONS USED IN REMARKS
   TC - TEMPERATURES IN CELSIUS
  WCI - WIND CHILL INDEX
   HX - HEAT INDEX
  VSB - VISIBILITY
$$



USA.gov is the U.S. government's official web portal to all federal, state and local government web resources and services.